FW1255 Weather Reports


time (UTC)temp
C
wind
direction
speed
KPH
gust
KPH
rain 1hr
cm
rain 24hr
cm
rain mn
cm
humidity
%
barometer
mb
20260507060010 5 103 3.2 9.7 0.00 0.00 0.00 62 1014.4
20260507054509 5 109 4.8 11.3 0.00 0.00 0.00 63 1014.4
20260507053008 5 115 4.8 9.7 0.00 0.00 0.00 62 1014.4
20260507051505 5 114 3.2 6.4 0.00 0.00 0.00 63 1014.4
20260507050005 5 106 3.2 9.7 0.00 0.00 0.00 60 1014.4
20260507044606 6 360 6.4 12.9 0.00 0.00 0.00 56 1014.5
20260507043104 6 77 6.4 9.7 0.00 0.00 0.00 55 1014.6
20260507041600 6 76 6.4 12.9 0.00 0.00 0.00 55 1014.8
20260507040056 7 70 0.0 3.2 0.00 0.00 0.00 54 1015.0
20260507034608 7 67 6.4 8.0 0.00 0.00 0.00 52 1015.0
20260507033056 7 360 4.8 8.0 0.00 0.00 0.00 50 1015.1
20260507031554 7 5 3.2 6.4 0.00 0.00 0.00 50 1015.2
20260507030101 7 355 0.0 4.8 0.00 0.00 0.00 49 1015.3
20260507024557 7 333 0.0 0.0 0.00 0.00 0.00 47 1015.3
20260507023054 8 333 0.0 4.8 0.00 0.00 0.00 46 1015.3
20260507021556 8 333 3.2 4.8 0.00 0.00 0.00 45 1015.3
20260507020052 8 329 3.2 8.0 0.00 0.00 0.00 45 1015.3
20260507014554 8 300 3.2 4.8 0.00 0.00 0.00 44 1015.1
20260507013059 9 300 3.2 8.0 0.00 0.00 0.00 43 1015.1
20260507011553 10 302 8.0 19.3 0.00 0.00 0.00 40 1015.1
20260507010049 10 307 11.3 20.9 0.00 0.00 0.00 40 1015.0
20260507004548 11 313 12.9 24.1 0.00 0.00 0.00 39 1015.0
20260507003048 11 313 16.1 24.1 0.00 0.00 0.00 38 1015.0
20260507001548 11 325 9.7 20.9 0.00 0.00 0.00 38 1015.1
20260507000052 11 292 14.5 22.5 0.00 0.00 0.00 39 1015.2
20260506234550 11 300 11.3 20.9 0.00 0.00 0.00 39 1015.3
20260506233043 11 312 14.5 24.1 0.00 0.00 0.00 41 1015.4
20260506231545 11 360 17.7 25.7 0.00 0.00 0.00 41 1015.5
20260506230042 11 278 14.5 27.4 0.00 0.00 0.00 41 1015.6
20260506224556 11 315 16.1 24.1 0.00 0.00 0.00 42 1015.7
20260506223042 11 319 17.7 29.0 0.00 0.00 0.00 42 1015.8
20260506221540 11 275 17.7 30.6 0.00 0.00 0.00 42 1016.0
20260506220041 11 229 25.7 33.8 0.00 0.00 0.00 42 1016.1
20260506214546 11 288 25.7 38.6 0.00 0.00 0.00 42 1016.3
20260506213043 11 256 20.9 33.8 0.00 0.00 0.00 42 1016.3
20260506211536 11 360 22.5 33.8 0.00 0.00 0.00 42 1016.5
20260506210040 11 313 25.7 49.9 0.00 0.00 0.00 42 1016.7
20260506204535 11 279 20.9 43.5 0.00 0.00 0.00 42 1016.9
20260506203034 11 284 32.2 40.2 0.00 0.00 0.00 43 1017.1
20260506201532 10 298 19.3 35.4 0.00 0.00 0.00 44 1017.0
20260506200032 10 360 16.1 37.0 0.00 0.00 0.00 45 1017.2
20260506194527 10 305 22.5 32.2 0.00 0.00 0.00 45 1017.5
20260506193026 10 309 20.9 32.2 0.00 0.00 0.00 46 1017.6
20260506191525 9 279 17.7 32.2 0.00 0.00 0.00 46 1017.7
20260506190022 8 360 17.7 33.8 0.00 0.00 0.00 47 1017.8
20260506184526 8 311 25.7 35.4 0.00 0.00 0.00 47 1017.9
20260506183021 8 298 27.4 41.8 0.00 0.00 0.00 47 1017.9
20260506181519 8 340 19.3 41.8 0.00 0.00 0.00 48 1018.1
20260506180024 8 330 27.4 43.5 0.00 0.00 0.00 47 1018.1
20260506174516 7 300 20.9 41.8 0.00 0.00 0.00 49 1018.3
20260506173014 7 311 20.9 33.8 0.00 0.00 0.00 49 1018.4
20260506171514 7 294 29.0 35.4 0.00 0.00 0.00 48 1018.4
20260506170015 7 271 27.4 38.6 0.00 0.00 0.00 49 1018.5
20260506164515 7 304 24.1 40.2 0.00 0.00 0.00 51 1018.5
20260506163011 6 286 25.7 41.8 0.00 0.00 0.00 52 1018.6
20260506161609 7 292 25.7 33.8 0.00 0.00 0.00 51 1018.6
20260506160008 7 316 20.9 40.2 0.00 0.00 0.00 52 1018.5
20260506154506 7 303 24.1 35.4 0.00 0.00 0.00 52 1018.4
20260506153003 6 360 19.3 30.6 0.00 0.00 0.00 53 1018.4
20260506151600 6 319 20.9 32.2 0.00 0.00 0.00 56 1018.6
20260506150100 6 288 16.1 25.7 0.00 0.00 0.00 57 1018.6
20260506144604 6 307 17.7 27.4 0.00 0.00 0.00 57 1018.5
20260506143054 5 317 14.5 29.0 0.00 0.00 0.00 61 1018.5
20260506141550 5 360 16.1 27.4 0.00 0.00 0.00 62 1018.5
20260506140057 5 313 8.0 20.9 0.00 0.00 0.00 64 1018.4
20260506134542 4 302 3.2 14.5 0.00 0.00 0.00 68 1018.3
20260506133045 3 332 1.6 9.7 0.00 0.00 0.00 70 1018.4
20260506131537 3 298 6.4 14.5 0.00 0.00 0.00 72 1018.4
20260506130032 2 277 6.4 12.9 0.00 0.00 0.00 75 1018.3
20260506124527 2 280 8.0 11.3 0.00 0.00 0.00 76 1018.2
20260506123025 1 240 4.8 8.0 0.00 0.00 0.00 77 1017.9
20260506121522 1 274 1.6 8.0 0.00 0.00 0.00 76 1017.8
20260506120033 1 302 4.8 14.5 0.00 0.00 0.00 77 1017.6
20260506114517 1 302 4.8 8.0 0.00 0.00 0.00 77 1017.4
20260506113015 1 306 1.6 4.8 0.00 0.00 0.00 77 1017.1
20260506111513 1 304 4.8 8.0 0.00 0.00 0.00 76 1017.0
20260506110012 0 292 6.4 8.0 0.00 0.00 0.00 77 1017.0
20260506104511 0 308 3.2 9.7 0.00 0.00 0.00 77 1016.9
20260506103010 0 290 3.2 8.0 0.00 0.00 0.00 77 1016.8
20260506101509 0 298 4.8 11.3 0.00 0.00 0.00 77 1016.7
20260506100007 0 296 3.2 6.4 0.00 0.00 0.00 78 1016.4
20260506094506 -1 297 3.2 6.4 0.00 0.00 0.00 78 1016.5
20260506093005 0 360 8.0 9.7 0.00 0.00 0.00 74 1016.5
20260506091503 0 338 0.0 0.0 0.00 0.00 0.00 74 1016.1
20260506090004 0 338 0.0 0.0 0.00 0.00 0.00 75 1016.0
20260506084502 0 338 0.0 3.2 0.00 0.00 0.00 74 1016.0
20260506083000 0 331 3.2 6.4 0.00 0.00 0.00 77 1016.0
20260506081600 0 317 6.4 9.7 0.00 0.00 0.00 74 1016.3
20260506073051 0 323 4.8 6.4 0.00 0.00 0.00 72 1015.6
20260506071547 0 332 3.2 4.8 0.00 0.00 0.00 71 1015.6
20260506061541 1 343 3.2 6.4 0.00 0.00 0.00 69 1015.7